Location: Westfield
(45.3617°N, 66.2417°W)
Time: 05:47:45
(UTC-04:00)

Tiangong 1 - Visible Passes

Search period start: 18 January 2018 00:00
Search period end: 28 January 2018 00:00
Orbit: 264 x 288 km, 42.8° (Epoch: 17 January)

Date Brightness Start Highest point End Pass type
(mag) Time Alt. Az. Time Alt. Az. Time Alt. Az.
18 Jan 1.8 19:00:25 10° WSW 19:02:18 36° SW 19:02:18 36° SW visible
19 Jan 1.9 19:00:08 10° W 19:02:08 34° SSW 19:02:08 34° SSW visible
20 Jan 2.1 18:59:45 10° WSW 19:01:53 29° SSW 19:01:53 29° SSW visible
21 Jan 2.5 18:59:19 10° WSW 19:01:18 21° SSW 19:01:37 21° S visible
22 Jan 3.1 18:58:55 10° WSW 19:00:28 15° SSW 19:01:19 13° S visible
